Home > Weather > Iran > Tabriz > Past weeks

Flag for Iran Weather past 2 weeks in Tabriz, Iran

52 °F

Passing clouds.

Feels Like: 49 °F
Forecast: 37 / 51 °F
Wind: 9 mph from Southwest

Location: Tabriz Airport

Current Time: Dec 1, 2015 at 10:19:26 PM

Latest Report: Dec 1, 2015 at 9:20 PM

Visibility: N/A

Pressure: 30.01 "Hg (25.40 "Hg at 1388m altitude)

Humidity: 50%

Dew point: 34 °F

Location of TabrizLocation

Historic Weather in Tabriz — Graph


Tabriz temperature yesterday

Maximum temperature yesterday: 54 °F (at 3:00 PM)
Minimum temperature yesterday: 34 °F (at 3:00 AM)
Average temperature yesterday: 42 °F

Past Weeks' High & Low Weather Summary

High57 °F (Dec 1, 2:00 PM)100% (Nov 17, 4:30 AM)30.48 "Hg (Nov 17, 4:30 AM)
Low30 °F (Nov 21, 6:00 AM)35% (Nov 28, 12:30 PM)29.89 "Hg (Nov 17, 1:00 PM)
Average41 °F77%30.18 "Hg
* Reported Nov 16 8:30 PM — Dec 1 8:50 PM, Tabriz, Weather by CustomWeather, © 2015

Note: Actual official high and low records may vary slightly from our data, if they occured in-between our weather recording intervals... More about our weather records


Tabriz weather history for previous 24 hours

Time TempWeatherWind HumidityBarometerVisibility
8:50 PM
Tue, Dec 1
52 °FPassing clouds.7 mph50%30.01 "HgN/A
8:30 PM50 °FPassing clouds.7 mph58%30.01 "HgN/A
8:00 PM52 °FPassing clouds.7 mph50%30.01 "HgN/A
7:30 PM52 °FPassing clouds.16 mph54%30.01 "HgN/A
7:00 PM52 °FPassing clouds.16 mph50%29.98 "HgN/A
6:30 PM52 °FPassing clouds.5 mph50%29.98 "HgN/A
6:00 PM52 °FPassing clouds.16 mph54%29.98 "HgN/A
5:30 PM52 °FScattered clouds.16 mph54%29.98 "HgN/A
5:00 PM54 °FScattered clouds.14 mph58%29.95 "HgN/A
4:30 PM54 °FScattered clouds.14 mph58%29.95 "HgN/A
4:00 PM54 °FScattered clouds.18 mph54%29.95 "HgN/A
3:30 PM55 °FScattered clouds.22 mph47%29.95 "HgN/A
3:00 PM55 °FScattered showers. Scattered clouds.25 mph47%29.95 "HgN/A
2:30 PM57 °FScattered clouds.21 mph44%29.95 "HgN/A
2:00 PM57 °FScattered clouds.22 mph48%29.95 "HgN/A
1:30 PM55 °FScattered clouds.16 mph51%29.95 "HgN/A
1:00 PM55 °FScattered clouds.16 mph51%29.98 "HgN/A
12:30 PM54 °FBroken clouds.12 mph54%29.98 "HgN/A
11:30 AM54 °FScattered showers. Broken clouds.21 mph51%30.01 "HgN/A
11:00 AM54 °FScattered showers. Broken clouds.9 mph54%30.01 "Hg5 mi
10:30 AM52 °FBroken clouds.2 mph58%30.01 "Hg5 mi
10:00 AM48 °FBroken clouds.5 mph66%30.01 "Hg5 mi
9:30 AM48 °FBroken clouds.No wind66%30.04 "Hg5 mi
9:00 AM46 °FBroken clouds.2 mph71%30.01 "Hg5 mi
8:30 AM46 °FBroken clouds.2 mph71%30.01 "Hg5 mi
8:00 AM45 °FBroken clouds.2 mph76%30.01 "Hg5 mi
7:30 AM45 °FPartly cloudy.2 mph76%30.01 "Hg5 mi
7:00 AM43 °FPartly cloudy.2 mph81%30.01 "HgN/A
6:30 AM43 °FPartly cloudy.No wind81%30.01 "Hg5 mi
6:00 AM41 °FPartly cloudy.5 mph81%30.01 "Hg5 mi
5:30 AM41 °FPartly cloudy.2 mph81%30.01 "Hg5 mi
4:00 AM41 °FSprinkles. Passing clouds.5 mph81%30.07 "Hg5 mi
3:20 AM41 °FPassing clouds.7 mph70%30.07 "HgN/A
2:30 AM41 °FPassing clouds.5 mph70%30.07 "HgN/A
2:00 AM41 °FPassing clouds.2 mph70%30.07 "HgN/A
1:30 AM41 °FPassing clouds.5 mph70%30.07 "HgN/A
12:30 AM39 °FClear.5 mph70%30.09 "Hg10 mi
12:00 AM39 °FClear.9 mph70%30.09 "Hg10 mi
11:30 PM
Mon, Nov 30
37 °FClear.9 mph75%30.09 "Hg10 mi
11:00 PM37 °FClear.9 mph75%30.12 "Hg10 mi
10:30 PM37 °FClear.7 mph75%30.12 "Hg10 mi
10:00 PM37 °FClear.7 mph75%30.12 "Hg10 mi
Weather by CustomWeather, © 2015

See weather overviewHow to use our weather pages